Flag for Rwanda Weather past 2 weeks in Butare, Rwanda

Now
81 °F

Scattered clouds.


Feels Like: 81 °F
Forecast: 55 / 77 °F
Wind: 7 mph from Southeast

Location: Kigali Airport

Current Time: Jul 30, 2015 at 2:33:42 PM

Latest Report: Jul 30, 2015 at 2:30 PM


Visibility: N/A

Pressure: 30.12 "Hg (24.68 "Hg at 1750m altitude)

Humidity: 42%

Dew point: 55 °F

Location of ButareLocation

Historic Weather in Butare — Graph

°F

Butare temperature yesterday

Maximum temperature yesterday: 84 °F (at 4:30 PM)
Minimum temperature yesterday: 59 °F (at 6:00 AM)
Average temperature yesterday: 72 °F

Past Weeks' High & Low Weather Summary

 TemperatureHumidityPressure
High88 °F (Jul 16, 4:00 PM)100% (Jul 27, 7:30 AM)30.24 "Hg (Jul 27, 7:30 AM)
Low57 °F (Jul 16, 6:30 AM)29% (Jul 28, 3:30 PM)30.04 "Hg (Jul 25, 4:00 PM)
Average74 °F55%30.14 "Hg
* Reported Jul 15 1:00 PM — Jul 30 1:00 PM, Butare, Weather by CustomWeather, © 2015

Note: Actual official high and low records may vary slightly from our data, if they occured in-between our weather recording intervals... More about our weather records

Advertising

Butare weather history for previous 24 hours

 ConditionsComfort  
Time TempWeatherWind HumidityBarometerVisibility
1:00 PM
Thu, Jul 30
79 °FScattered clouds.7 mph45%30.18 "HgN/A
12:30 PM79 °FScattered clouds.7 mph45%30.18 "HgN/A
12:00 PM81 °FScattered clouds.7 mph39%30.18 "HgN/A
11:30 AM81 °FPassing clouds.9 mph42%30.18 "HgN/A
11:00 AM81 °FPassing clouds.9 mph42%30.21 "HgN/A
10:30 AM79 °FPassing clouds.5 mph45%30.21 "HgN/A
10:00 AM79 °FPassing clouds.No wind48%30.21 "Hg5 mi
9:30 AM77 °FPassing clouds.No wind51%30.21 "HgN/A
9:00 AM72 °FScattered clouds.No wind61%30.21 "HgN/A
8:30 AM70 °FBroken clouds.3 mph60%30.21 "HgN/A
8:00 AM66 °FBroken clouds.3 mph73%30.18 "HgN/A
7:00 AM66 °FScattered clouds.3 mph68%30.18 "HgN/A
6:00 AM64 °FPassing clouds.3 mph73%30.15 "HgN/A
5:30 AM64 °FPassing clouds.No wind68%30.15 "HgN/A
5:00 AM64 °FPassing clouds.No wind73%30.15 "HgN/A
4:30 AM64 °FPassing clouds.3 mph73%30.15 "HgN/A
4:00 AM66 °FPassing clouds.No wind68%30.15 "HgN/A
3:30 AM66 °FPassing clouds.3 mph68%30.15 "HgN/A
3:00 AM66 °FPassing clouds.No wind68%30.15 "HgN/A
2:30 AM66 °FPassing clouds.No wind64%30.15 "HgN/A
2:00 AM66 °FPassing clouds.5 mph64%30.15 "HgN/A
1:30 AM66 °FPassing clouds.5 mph64%30.15 "HgN/A
1:00 AM68 °FPassing clouds.3 mph64%30.15 "HgN/A
12:30 AM68 °FPassing clouds.5 mph60%30.18 "HgN/A
12:00 AM66 °FPassing clouds.3 mph64%30.18 "HgN/A
11:30 PM
Wed, Jul 29
68 °FPassing clouds.3 mph60%30.18 "HgN/A
11:00 PM68 °FPassing clouds.No wind60%30.18 "HgN/A
10:30 PM70 °FPassing clouds.No wind53%30.18 "HgN/A
10:00 PM70 °FPassing clouds.No wind53%30.18 "HgN/A
9:30 PM70 °FPassing clouds.3 mph53%30.15 "HgN/A
9:00 PM72 °FPassing clouds.No wind50%30.15 "HgN/A
8:30 PM72 °FPassing clouds.3 mph50%30.15 "HgN/A
8:00 PM75 °FPassing clouds.5 mph47%30.12 "HgN/A
7:30 PM77 °FPassing clouds.5 mph42%30.12 "HgN/A
7:00 PM77 °FPassing clouds.6 mph42%30.12 "HgN/A
6:30 PM77 °FPassing clouds.5 mph42%30.09 "HgN/A
6:00 PM79 °FPassing clouds.5 mph39%30.09 "HgN/A
5:30 PM81 °FPassing clouds.9 mph37%30.09 "HgN/A
5:00 PM82 °FPassing clouds.8 mph35%30.09 "HgN/A
4:30 PM84 °FScattered clouds.3 mph33%30.07 "HgN/A
4:00 PM82 °FScattered clouds.3 mph32%30.09 "HgN/A
3:30 PM82 °FScattered clouds.5 mph32%30.09 "HgN/A
3:00 PM82 °FScattered clouds.7 mph32%30.09 "HgN/A
2:30 PM82 °FScattered clouds.5 mph35%30.12 "HgN/A
2:00 PM82 °FPassing clouds.5 mph32%30.12 "HgN/A
Weather by CustomWeather, © 2015

See weather overviewHow to use our weather pages